Skip Page Navigation
NASA JPL Caltech
NASA Logo - Jet Propulsion Laboratory + View the NASA Portal
+ Center for Near-Earth Object Studies
JPL Home Earth Solar System Stars & Galaxies Technology
JPL Solar System Dynamics
BODIES ORBITS EPHEMERIDES TOOLS PHYSICAL DATA DISCOVERY FAQ SITE MAP
JPL Small-Body Database Browser
Search: [ help ]  
85926 (1999 CV115)
Classification: Main-belt Asteroid          SPK-ID: 2085926
Ephemeris | Orbit Diagram | Orbital Elements | Mission Design | Physical Parameters | Discovery Circumstances | Close-Approach Data ]

[ show orbit diagram ]
Orbital Elements at Epoch 2459000.5 (2020-May-31.0) TDB
Reference: JPL 17 (heliocentric ecliptic J2000)
 Element Value Uncertainty (1-sigma)   Units 
e .2836079215831764 5.993e-08  
a 2.593429782485247 1.6316e-08 au
q 1.857912552102697 1.6193e-07 au
i 10.12127682297223 5.2627e-06 deg
node 304.5615735775911 3.5034e-05 deg
peri 290.3705824179324 3.6937e-05 deg
M 343.7131812342683 1.0262e-05 deg
tp 2459069.515069659179
(2020-Aug-08.01506966)
4.3662e-05 TDB
period 1525.492819357743
4.18
1.4396e-05
3.941e-08
d
yr
n .2359893114092571 2.227e-09 deg/d
Q 3.328947012867797 2.0943e-08 au
  Orbit Determination Parameters
   # obs. used (total)      459  
   data-arc span      7745 days (21.20 yr)  
   first obs. used      1999-02-12  
   last obs. used      2020-04-27  
   planetary ephem.      DE431  
   SB-pert. ephem.      SB431-N16  
   condition code      0  
   norm. resid. RMS      .56044  
   source      ORB  
   producer      Otto Matic  
   solution date      2020-May-20 15:41:17  

Additional Information
 Earth MOID = .874964 au 
 Jupiter MOID = 1.84148 au 
 T_jup = 3.339 
[ show covariance matrix ]

Ephemeris | Orbit Diagram | Orbital Elements | Mission Design | Physical Parameters | Discovery Circumstances | Close-Approach Data ]

Physical Parameter Table
Parameter Symbol Value Units Sigma Reference Notes
absolute magnitude H 15.7   n/a MPO468829  
diameter diameter 4.118 km 0.780 urn:nasa:pds:neowise_diameters_albedos::2.0[mainbelt] (http://adsabs.harvard.edu/abs/2017AJ....154..168M)  
geometric albedo albedo 0.062   0.022 urn:nasa:pds:neowise_diameters_albedos::2.0[mainbelt] (http://adsabs.harvard.edu/abs/2017AJ....154..168M)  

85926 (1999 CV115)          Discovered 1999-Feb-12 by LINEAR at Socorro
Reference: 20040830/Numbers.arcLast Updated: 2004-09-06

[ show close-approach data ]
Alternate Designations
 1999 CV115 = 2000 SQ333 
Ephemeris | Orbit Diagram | Orbital Elements | Mission Design | Physical Parameters | Discovery Circumstances | Close-Approach Data ]
ABOUT SSD CREDITS/AWARDS PRIVACY/COPYRIGHT GLOSSARY LINKS
FirstGov 2020-Oct-25 12:26 UT
(server date/time)  
NASA Home Page
Site Manager:   Ryan S. Park
Webmaster  Alan B. Chamberlin